York, NE

8:46 AM CDT on October 23, 2019 (GMT -0500)
York Municipal

Weather History for KJYR - August, 2019

Change the Weather History Date:

Tuesday, August 20, 2019

  Actual Average Record
Temperature  
Mean Temperature 81 °F -  
Max Temperature 89 °F 85 °F 98 °F (1948)
Min Temperature 73 °F 63 °F 39 °F (1950)
Cooling Degree Days 16    
Growing Degree Days 31 (Base 50)    
Moisture  
Dew Point 77 °F    
Average Humidity 87    
Maximum Humidity 100    
Minimum Humidity 66    
Precipitation  
Precipitation 0.00 in - - ()
Sea Level Pressure  
Sea Level Pressure 29.95 in    
Wind  
Wind Speed 7 mph (East)    
Max Wind Speed 13 mph    
Max Gust Speed -    
Visibility 9 miles    
Events Thunderstorm    
Averages and records for this station are not official NWS values.
T = Trace of Precipitation, MM = Missing Value Source: NWS Daily Summary

Daily Weather History Graph

Daily Weather History Graph

Search for Another Location

Airport or City:

Astronomy

Aug. 20, 2019 Rise Set
Actual Time 6:45 AM CDT 8:21 PM CDT
Civil Twilight 6:16 AM CDT 8:50 PM CDT
Nautical Twilight 5:40 AM CDT 9:25 PM CDT
Astronomical Twilight 5:03 AM CDT 10:03 PM CDT
Moon 11:08 PM CDT (8/20) 11:26 AM CDT (8/20)
Length of Visible Light 14h 34m
Length of Day
13h 36m
Waning Gibbous, 77% of the Moon is Illuminated
Aug 20
Waning Gibbous
Aug 23
Last Quarter
Aug 30
New
Sep 5
First Quarter
Sep 13
Full

Hourly Weather History & Observations

Time (CDT) Temp. Heat Index Dew Point Humidity Pressure Visibility Wind Dir Wind Speed Gust Speed Precip Events Conditions
12:20 AM 78.8 °F - 77.0 °F 94% 29.93 in 10.0 mi SSE 6.9 mph - N/A   Clear
12:35 AM 77.0 °F - 77.0 °F 100% 29.93 in 10.0 mi SSE 6.9 mph - N/A   Clear
12:55 AM 77.0 °F - 77.0 °F 100% 29.93 in 10.0 mi SSE 6.9 mph - N/A   Clear
1:15 AM 77.0 °F - 77.0 °F 100% 29.93 in 10.0 mi South 6.9 mph - N/A   Clear
1:35 AM 77.0 °F - 77.0 °F 100% 29.92 in 10.0 mi South 5.8 mph - N/A   Clear
1:55 AM 77.0 °F - 77.0 °F 100% 29.91 in 10.0 mi South 6.9 mph - N/A   Clear
2:15 AM 77.0 °F - 77.0 °F 100% 29.90 in 10.0 mi South 8.1 mph - N/A   Clear
2:35 AM 77.0 °F - 77.0 °F 100% 29.90 in 10.0 mi South 6.9 mph - N/A   Clear
2:55 AM 77.0 °F - 77.0 °F 100% 29.89 in 10.0 mi South 8.1 mph - N/A   Clear
3:15 AM 77.0 °F - 75.2 °F 94% 29.89 in 10.0 mi SSW 9.2 mph - N/A   Clear
3:35 AM 77.0 °F - 75.2 °F 94% 29.89 in 10.0 mi SSW 9.2 mph - N/A   Clear
3:55 AM 77.0 °F - 75.2 °F 94% 29.88 in 10.0 mi SSW 10.4 mph - N/A   Clear
4:15 AM 77.0 °F - 75.2 °F 94% 29.88 in 10.0 mi SSW 9.2 mph - N/A   Clear
4:35 AM 77.0 °F - 75.2 °F 94% 29.88 in 10.0 mi SSW 11.5 mph - N/A   Clear
4:55 AM 77.0 °F - 75.2 °F 94% 29.87 in 10.0 mi SW 10.4 mph - N/A   Clear
5:15 AM 77.0 °F - 75.2 °F 94% 29.87 in 10.0 mi SW 11.5 mph - N/A   Clear
5:35 AM 75.2 °F - 75.2 °F 100% 29.88 in 9.0 mi WSW 5.8 mph - N/A   Clear
5:55 AM 75.2 °F - 75.2 °F 100% 29.89 in 10.0 mi Calm Calm - N/A   Clear
6:15 AM 75.2 °F - 73.4 °F 94% 29.89 in 9.0 mi WSW 6.9 mph - N/A   Clear
6:35 AM 73.4 °F - 73.4 °F 100% 29.90 in 9.0 mi West 4.6 mph - N/A   Clear
6:55 AM 73.4 °F - 73.4 °F 100% 29.91 in 7.0 mi West 3.5 mph - N/A   Clear
7:15 AM 73.4 °F - 73.4 °F 100% 29.92 in 2.5 mi Calm Calm - N/A   Clear
7:35 AM 73.4 °F - 71.6 °F 94% 29.93 in 0.8 mi Calm Calm - N/A   Mist
8:00 AM 73.4 °F - 73.4 °F 100% 29.94 in 3.0 mi Calm Calm - N/A   Clear
8:15 AM 75.2 °F - 75.2 °F 100% 29.94 in 5.0 mi Calm Calm - N/A   Clear
8:35 AM 77.0 °F - 75.2 °F 94% 29.94 in 8.0 mi Calm Calm - N/A   Clear
8:55 AM 77.0 °F - 75.2 °F 94% 29.95 in 10.0 mi West 3.5 mph - N/A   Clear
9:15 AM 80.6 °F 86.2 °F 75.2 °F 84% 29.95 in 10.0 mi West 4.6 mph - N/A   Clear
9:35 AM 80.6 °F 86.2 °F 75.2 °F 84% 29.96 in 10.0 mi WSW 3.5 mph - N/A   Clear
9:55 AM 80.6 °F 86.2 °F 75.2 °F 84% 29.96 in 10.0 mi West 4.6 mph - N/A   Clear
10:15 AM 82.4 °F 89.5 °F 75.2 °F 79% 29.98 in 10.0 mi NNW 6.9 mph - N/A   Clear
10:35 AM 82.4 °F 89.5 °F 75.2 °F 79% 29.97 in 10.0 mi North 3.5 mph - N/A   Clear
10:55 AM 84.2 °F 92.3 °F 75.2 °F 74% 29.98 in 10.0 mi NNW 3.5 mph - N/A   Clear
11:15 AM 82.4 °F 89.5 °F 75.2 °F 79% 29.97 in 10.0 mi North 3.5 mph - N/A   Clear
11:35 AM 84.2 °F 92.3 °F 75.2 °F 74% 29.97 in 10.0 mi NNE 4.6 mph - N/A   Clear
11:55 AM 86.0 °F 96.9 °F 77.0 °F 74% 29.98 in 10.0 mi North 3.5 mph - N/A   Clear
12:15 PM 86.0 °F 96.9 °F 77.0 °F 74% 29.97 in 10.0 mi North 10.4 mph - N/A   Clear
12:35 PM 86.0 °F 96.9 °F 77.0 °F 74% 29.98 in 10.0 mi NE 8.1 mph - N/A   Clear
12:55 PM 86.0 °F 96.9 °F 77.0 °F 74% 29.98 in 10.0 mi NNE 4.6 mph - N/A   Clear
1:15 PM 87.8 °F 102.5 °F 78.8 °F 75% 29.98 in 10.0 mi North 8.1 mph - N/A   Clear
1:35 PM 87.8 °F 104.9 °F 80.6 °F 79% 29.98 in 10.0 mi NNE 9.2 mph - N/A   Clear
1:55 PM 87.8 °F 102.5 °F 78.8 °F 75% 29.98 in 10.0 mi NE 8.1 mph - N/A   Clear
2:15 PM 87.8 °F 99.7 °F 77.0 °F 70% 29.98 in 10.0 mi NE 4.6 mph - N/A   Clear
2:35 PM 89.6 °F 104.7 °F 78.8 °F 70% 29.97 in 10.0 mi NNE 11.5 mph - N/A   Clear
3:00 PM 89.6 °F 104.7 °F 78.8 °F 70% 29.97 in 10.0 mi NE 11.5 mph - N/A   Clear
3:15 PM 89.6 °F 104.7 °F 78.8 °F 70% 29.97 in 10.0 mi ENE 12.7 mph - N/A   Clear
3:40 PM 89.6 °F 104.7 °F 78.8 °F 70% 29.98 in 10.0 mi ENE 12.7 mph - N/A   Clear
3:55 PM 89.6 °F 102.2 °F 77.0 °F 66% 29.97 in 10.0 mi ENE 12.7 mph - N/A   Clear
4:15 PM 89.6 °F 104.7 °F 78.8 °F 70% 29.98 in 10.0 mi ENE 9.2 mph - N/A   Clear
4:35 PM 89.6 °F 108.2 °F 80.6 °F 75% 29.97 in 10.0 mi ENE 9.2 mph - N/A   Clear
4:55 PM 89.6 °F 108.2 °F 80.6 °F 75% 29.97 in 10.0 mi ENE 9.2 mph - N/A   Clear
5:15 PM 89.6 °F 108.2 °F 80.6 °F 75% 29.97 in 10.0 mi ENE 9.2 mph - N/A   Clear
5:35 PM 87.8 °F 104.9 °F 80.6 °F 79% 29.98 in 10.0 mi East 6.9 mph - N/A   Scattered Clouds
5:55 PM 87.8 °F 102.5 °F 78.8 °F 75% 29.97 in 10.0 mi East 8.1 mph - N/A   Mostly Cloudy
6:15 PM 89.6 °F 108.2 °F 80.6 °F 75% 29.97 in 10.0 mi ESE 9.2 mph - N/A   Partly Cloudy
6:35 PM 87.8 °F 102.5 °F 78.8 °F 75% 29.96 in 10.0 mi ESE 8.1 mph - N/A   Clear
6:55 PM 86.0 °F 99.3 °F 78.8 °F 79% 29.96 in 10.0 mi SE 4.6 mph - N/A   Clear
7:15 PM 86.0 °F 101.9 °F 80.6 °F 84% 29.97 in 10.0 mi ENE 3.5 mph - N/A   Clear
7:35 PM 84.2 °F 98.3 °F 80.6 °F 89% 29.98 in 10.0 mi NE 6.9 mph - N/A   Clear
7:55 PM 84.2 °F 98.3 °F 80.6 °F 89% 29.99 in 10.0 mi NE 8.1 mph - N/A   Mostly Cloudy
8:15 PM 82.4 °F 90.9 °F 77.0 °F 84% 29.98 in 10.0 mi ENE 11.5 mph - N/A   Scattered Clouds
8:35 PM 82.4 °F 90.9 °F 77.0 °F 84% 29.99 in 10.0 mi ENE 10.4 mph - N/A   Clear
8:55 PM 80.6 °F 87.1 °F 77.0 °F 89% 29.99 in 10.0 mi East 8.1 mph - N/A   Clear
9:15 PM 80.6 °F 87.1 °F 77.0 °F 89% 30.00 in 10.0 mi East 6.9 mph - N/A   Clear
9:35 PM 80.6 °F 87.1 °F 77.0 °F 89% 30.00 in 10.0 mi East 5.8 mph - N/A   Clear
9:55 PM 78.8 °F - 77.0 °F 94% 30.01 in 10.0 mi East 4.6 mph - N/A   Clear
10:15 PM 77.0 °F - 77.0 °F 100% 30.02 in 10.0 mi Calm Calm - N/A   Clear
10:35 PM 78.8 °F - 77.0 °F 94% 30.01 in 10.0 mi ESE 4.6 mph - N/A   Clear
10:55 PM 78.8 °F - 77.0 °F 94% 30.01 in 10.0 mi NNE 8.1 mph - N/A   Clear
11:15 PM 77.0 °F - 77.0 °F 100% 30.01 in 10.0 mi East 3.5 mph - N/A   Clear
11:35 PM 77.0 °F - 77.0 °F 100% 30.01 in 8.0 mi NNE 6.9 mph - N/A Thunderstorm Clear
11:55 PM 77.0 °F - 77.0 °F 100% 30.03 in 9.0 mi ENE 5.8 mph - N/A Thunderstorm Clear